TimePDT,TemperatureF,Dew PointF,Humidity,Sea Level PressureIn,VisibilityMPH,Wind Direction,Wind SpeedMPH,Gust SpeedMPH,PrecipitationIn,Events,Conditions,WindDirDegrees,DateUTC
12:53 AM,64.0,8.1,11,30.15,10.0,North,3.5,-,N/A,,Clear,360,2013-04-19 07:53:00
1:53 AM,61.0,6.1,11,30.14,10.0,NNW,10.4,-,N/A,,Clear,330,2013-04-19 08:53:00
2:53 AM,59.0,3.0,11,30.14,10.0,NNW,9.2,-,N/A,,Clear,340,2013-04-19 09:53:00
3:53 AM,59.0,3.9,11,30.14,10.0,NNW,11.5,-,N/A,,Clear,330,2013-04-19 10:53:00
4:53 AM,57.9,8.1,14,30.14,10.0,NW,4.6,-,N/A,,Clear,310,2013-04-19 11:53:00
5:53 AM,57.0,6.1,13,30.16,10.0,NW,5.8,-,N/A,,Clear,320,2013-04-19 12:53:00
6:53 AM,55.9,7.0,14,30.16,10.0,NNW,9.2,-,N/A,,Clear,330,2013-04-19 13:53:00
7:53 AM,64.0,8.1,11,30.16,10.0,NNW,8.1,-,N/A,,Clear,340,2013-04-19 14:53:00
8:53 AM,71.1,18.0,13,30.16,10.0,Calm,Calm,-,N/A,,Clear,0,2013-04-19 15:53:00
9:53 AM,77.0,7.0,7,30.16,10.0,Calm,Calm,-,N/A,,Clear,0,2013-04-19 16:53:00
10:53 AM,80.1,3.9,5,30.14,10.0,SW,4.6,-,N/A,,Clear,220,2013-04-19 17:53:00
11:53 AM,82.9,3.0,5,30.11,10.0,SE,6.9,-,N/A,,Clear,130,2013-04-19 18:53:00
12:53 PM,82.9,3.9,5,30.08,10.0,ENE,5.8,-,N/A,,Clear,70,2013-04-19 19:53:00
1:53 PM,84.0,6.1,5,30.04,10.0,SSE,9.2,-,N/A,,Clear,150,2013-04-19 20:53:00
2:53 PM,84.9,6.1,5,30.00,10.0,Variable,3.5,-,N/A,,Clear,0,2013-04-19 21:53:00
3:53 PM,86.0,6.1,5,29.96,10.0,Calm,Calm,-,N/A,,Clear,0,2013-04-19 22:53:00
4:53 PM,86.0,8.1,5,29.94,10.0,Calm,Calm,-,N/A,,Clear,0,2013-04-19 23:53:00
5:53 PM,86.0,10.0,6,29.92,10.0,SE,5.8,-,N/A,,Clear,140,2013-04-20 00:53:00
6:53 PM,84.0,16.0,8,29.91,10.0,East,8.1,-,N/A,,Partly Cloudy,100,2013-04-20 01:53:00
7:53 PM,79.0,19.0,11,29.92,10.0,East,6.9,-,N/A,,Clear,90,2013-04-20 02:53:00
8:53 PM,75.9,17.1,11,29.94,10.0,Calm,Calm,-,N/A,,Clear,0,2013-04-20 03:53:00
9:53 PM,73.0,21.0,14,29.94,10.0,SW,3.5,-,N/A,,Clear,230,2013-04-20 04:53:00
10:53 PM,73.0,19.0,13,29.93,10.0,Calm,Calm,-,N/A,,Clear,0,2013-04-20 05:53:00
11:53 PM,69.1,25.0,19,29.93,10.0,SW,3.5,-,N/A,,Clear,230,2013-04-20 06:53:00